This is the latest recevied weather packets stored in our database for station/object K9YK-13. If no packets are shown the sender has not sent any weather packets the latest 10 day(s).
| Time | Temp. | Humidity | Pressure | Rain* | Wind** | Luminosity | Snow |
|---|---|---|---|---|---|---|---|
| 1777579572 | 17.78° C | 49% | 0 hPa | 0 mm | - | - | - |
| 1777579272 | 17.22° C | 47% | 0 hPa | 0 mm | - | - | - |
| 1777577772 | 18.33° C | 43% | 0 hPa | 0 mm | - | - | - |
| 1777577472 | 18.33° C | 42% | 0 hPa | 0 mm | - | - | - |
| 1777577172 | 18.89° C | 44% | 0 hPa | 0 mm | - | - | - |
| 1777576872 | 18.33° C | 42% | 0 hPa | 0 mm | - | - | - |
| 1777576572 | 17.78° C | 46% | 0 hPa | 0 mm | - | - | - |
| 1777576272 | 17.22° C | 50% | 0 hPa | 0 mm | - | - | - |
| 1777574172 | 17.22° C | 47% | 0 hPa | 0 mm | - | - | - |
| 1777573872 | 17.78° C | 46% | 0 hPa | 0 mm | - | - | - |
| 1777573572 | 18.33° C | 46% | 0 hPa | 0 mm | - | - | - |
| 1777572672 | 18.33° C | 44% | 0 hPa | 0 mm | - | - | - |
| 1777572372 | 18.89° C | 53% | 0 hPa | 0 mm | - | - | - |
| 1777570272 | 18.89° C | 49% | 0 hPa | 0 mm | - | - | - |
| 1777569972 | 18.33° C | 47% | 0 hPa | 0 mm | - | - | - |
| 1777569672 | 17.78° C | 50% | 0 hPa | 0 mm | - | - | - |
| 1777569372 | 18.33° C | 49% | 0 hPa | 0 mm | - | - | - |
| 1777569072 | 17.78° C | 54% | 0 hPa | 0 mm | - | - | - |
| 1777566072 | 16.67° C | 57% | 0 hPa | 0 mm | - | - | - |
| 1777565772 | 15.56° C | 55% | 0 hPa | 0 mm | - | - | - |
| 1777565472 | 15.56° C | 62% | 0 hPa | 0 mm | - | - | - |
| 1777565172 | 13.89° C | 64% | 0 hPa | 0 mm | - | - | - |
| 1777563372 | 15° C | 55% | 0 hPa | 0 mm | - | - | - |
| 1777563072 | 15.56° C | 55% | 0 hPa | 0 mm | - | - | - |
| 1777562772 | 15° C | 60% | 0 hPa | 0 mm | - | - | - |
* Rain latest hour (hover to see other rain measurements)
** Current wind speed in m/s (hover to see current wind gust speed)